User: anonymous   Login
Location: Vancouver
(49.2500°N, 123.1330°W)
Time: 22:01:16
(UTC-07:00)
Language:

BREEZE-M DEB (TANK) - Orbit

View from above orbital plane
View from above orbital plane
View from above satellite
View from above satellite

Ground track
Ground track

The orbit data is extracted from the following two-line orbital elements,

1 27821U 03024B   15183.43765517  .00003885  00000-0  40740-3 0  9997
2 27821 049.5847 193.1011 4985884 207.6681 345.5525 05.67512398239460
Epoch (UTC): 02 July 2015 10:30:13
Eccentricity: 0.4985884
inclination: 49.5847°
perigee height: 279 km
apogee height: 13518 km
right ascension of ascending node: 193.1011°
argument of perigee: 207.6681°
revolutions per day: 5.67512398
mean anomaly at epoch: 345.5525°
orbit number at epoch: 23946

The dashed part of the orbit path shows where the satellite is in the earth's shadow,  

DLR